SCP
0 0 0 -0 0 -0 -0 -0 0 0 0 0 0 0 0 0 0 -0 -0 -0 -0 -0 -0 -0 -0 0 -0 0 0 0 0 0 -0 0 0 0 -0 0 -0 0 0 0 0 0
0 0 0 0 0 0 -0 0 0 0 0 0 0 0 0 0 0 0 -0 -0 -0 -0 0 -0 0 -0 0 -0 -0 0 0 0 0 0 0 0 0 0 0 0 0 0 0 0
0 0 0 0 0 0 -0 0 0 0 0 0 0 0 0 0 0 0 -0 -0 -0 -0 -0 -0 -0 -0 -0 0 -0 -0 0 0 0 0 0 0 0 0 0 0 0 0 0 0
0 0 0 0 0 0 0 0 0 0 0 0 0 0 0 0 0 -0 -0 -0 -0 -0 0 -0 0 -0 -0 -0 -0 0 -0 0 0 0 0 0 0 0 0 0 0 0 0 0
0 0 0 0 0 0 0 0 0 0 0 0 0 0 0 -0 0 0 -0 -0 -0 -0 -0 -0 -0 -0 0 0 0 -0 -0 0 0 0 0 0 0 0 0 0 0 0 0 0
0 0 0 0 0 0 0 0 0 0 0 0 0 0 -0 0 0 0 0 0 -0 -0 -0 -0 -0 -0 0 -0 0 0 0 0 0 0 0 0 0 0 0 0 0 0 0 0
0 0 0 0 0 -0 0 0 0 0 0 0 0 0 0 0 0 0 0 0 0 0 -0 -0 -0 -0 0 -0 0 0 0 0 0 0 0 0 0 0 0 0 0 0 0 0
0 0 0 0 0 0 0 0 0 0 0 0 0 0 0 -0 -0 -0 0 -0 -0 0 -0 0 -0 0 -0 -0 -0 0 0 0 0 0 0 0 0 0 0 0 0 0 0 0
0 0 0 0 0 0 0 0 0 0 0 0 0 0 0 0 0 0 -0 -0 -0 -0 0 -0 -0 0 -0 0 -0 0 0 0 0 0 0 0 0 0 0 0 0 0 0 0
0 0 0 0 0 0 0 0 0 0 0 0 0 0 0 0 0 0 0 -0 -0 -0 -0 -0 -0 0 -0 0 -0 -0 0 0 0 0 0 0 0 0 0 0 0 0 0 0
0 0 0 0 0 0 0 0 0 0 0 -0 0 -0 -0 0 0 0 0 0 0 -0 -0 0 0 0 -0 0 -0 -0 0 0 0 0 0 0 -0 0 0 0 0 0 0 0
0 0 0 0 0 0 0 0 0 0 0 0 0 0 0 0 0 0 0 0 0 0 -0 -0 -0 -0 -0 -0 0 0 0 0 -0 0 0 0 0 0 0 0 0 0 0 0
0 0 0 0 0 0 0 0 0 0 0 0 0 -0 -0 0 0 0 0 0 0 0 -0 -0 -0 -0 -0 -0 0 0 0 0 -0 -0 0 0 0 0 0 0 0 0 0 0
0 0 0 0 0 0 0 0 0 0 0 0 0 0 0 0 0 0 0 -0 0 0 0 -0 -0 -0 0 -0 -0 0 0 0 0 -0 -0 -0 0 0 0 0 0 0 0 0
0 0 0 0 0 0 0 0 0 0 0 0 0 0 0 0 0 0 0 0 0 0 0 0 -0 -0 0 0 0 0 0 -0 -0 0 0 -0 0 0 0 0 0 0 0 0
-0 0 0 0 0 0 0 0 0 0 0 0 0 0 0 0 0 0 0 0 0 0 0 0 -0 0 0 -0 0 0 0 -0 -0 -0 0 0 0 0 0 0 0 0 0 0
0 0 0 0 0 0 0 0 0 0 0 0 0 0 0 0 0 0 0 0 0 0 0 0 -0 0 0 0 0 0 0 0 0 0 0 -0 0 0 0 0 0 0 0 0
0 0 0 0 0 0 0 -0 0 0 0 0 0 0 0 0 0 0 0 0 0 0 0 0 0 0 0 0 0 0 0 0 0 0 0 -0 0 0 0 0 0 0 0 0
0 0 0 0 0 0 0 -0 0 0 0 0 0 0 0 0 0 0 0 0 0 0 0 0 0 0 0 0 0 0 0 0 0 0 0 0 0 0 0 0 0 0 0 0
0 0 0 0 0 0 0 0 0 0 0 0 0 0 0 0 0 0 0 0 0 0 0 0 0 0 0 0 0 0 0 0 0 0 -0 0 0 0 0 0 0 0 0 0
0 0 0 0 0 0 0 0 0 0 0 0 0 0 0 0 0 0 0 0 0 -0 0 0 0 0 0 0 0 0 0 0 0 0 0 0 0 0 0 0 0 0 0 0
0 0 0 0 0 0 0 0 0 0 0 0 0 0 0 0 0 0 0 0 0 0 0 0 0 0 0 0 0 0 0 0 0 0 0 0 0 0 0 0 0 0 0 0
0 0 0 0 0 0 0 0 0 0 0 0 0 0 0 0 0 0 0 0 0 0 0 0 -0 0 0 0 0 0 0 0 0 0 0 0 0 0 0 0 0 0 0 0
0 0 0 0 0 0 0 0 0 0 0 0 0 0 0 0 0 0 0 0 0 0 0 0 0 0 0 0 0 0 0 0 0 0 0 0 0 0 0 0 0 0 0 0
0 0 0 0 0 0 0 0 0 0 0 0 0 0 0 0 0 0 0 0 0 0 0 0 0 0 0 0 0 0 0 0 0 0 0 0 0 0 0 0 0 0 0 0
0 0 0 0 0 0 0 0 0 0 0 0 0 0 0 0 0 0 0 0 0 0 0 0 0 0 0 0 0 0 0 0 0 0 0 0 0 0 0 0 0 0 0 0
0 0 0 0 0 0 0 0 0 0 0 0 0 0 0 0 0 0 0 0 0 0 0 0 0 0 0 0 0 0 0 0 0 0 0 0 0 0 0 0 0 0 0 0
Wind_Speed_500mb
12 13 9 4 3 7 14 1 3 13 6 3 2 7 11 15 12 12 10 14 27 28 36 17 17 26 18 28 23 16 14 15 27 37 25 30 46 32 36 18 27 18 18 4
15 18 11 5 4 6 3 3 4 8 6 3 4 5 9 5 13 10 12 11 20 28 20 13 18 24 18 40 26 22 19 6 4 11 11 17 30 34 29 25 22 14 17 14
19 22 13 7 6 6 9 3 2 2 2 3 10 10 7 14 4 10 17 12 16 24 23 28 12 27 25 23 21 19 20 10 9 8 11 11 22 33 36 28 17 21 22 23
21 24 17 13 6 6 6 4 3 4 2 3 11 10 9 15 14 12 12 10 24 28 23 24 21 33 26 31 11 20 14 13 16 5 17 8 8 21 20 23 24 18 9 27
23 26 22 16 9 8 4 7 4 7 2 3 7 3 5 14 17 20 19 20 30 32 26 32 38 38 33 18 19 22 23 10 15 18 15 12 13 13 15 22 20 22 25 17
20 31 29 20 14 13 6 6 3 9 1 4 6 3 12 17 21 14 14 27 31 32 31 48 57 58 53 40 33 18 12 13 15 5 7 7 15 22 23 22 21 16 23 12
20 34 32 23 19 20 8 6 3 3 7 6 6 11 17 19 21 24 35 32 27 32 51 60 54 49 36 30 25 12 15 17 9 10 5 9 8 15 15 19 16 13 4 13
24 34 38 31 22 24 15 10 7 5 8 13 12 11 14 20 21 20 24 25 22 36 43 20 24 7 7 9 22 20 21 10 8 7 11 14 15 15 16 20 8 18 13 14
27 26 38 35 26 24 33 24 11 6 10 6 10 13 20 16 17 14 10 16 25 25 16 12 14 10 8 3 6 1 9 14 10 11 9 4 14 20 29 33 7 14 13 15
30 26 37 35 32 26 22 26 24 19 8 26 22 17 12 16 14 12 16 20 21 14 5 14 13 9 13 7 6 1 3 6 17 17 12 9 28 21 17 10 8 17 18 21
31 31 33 37 33 33 28 26 28 30 15 33 32 27 25 27 20 11 21 19 3 9 7 7 9 10 10 9 8 4 8 7 4 7 9 4 45 10 10 2 15 18 24 22
33 35 29 42 32 38 31 26 22 26 29 25 24 26 35 31 34 21 10 18 21 10 7 7 7 9 9 19 8 10 5 10 5 11 7 15 23 22 22 20 16 20 20 17
32 34 32 41 38 32 41 29 25 23 28 44 40 34 19 30 33 27 20 10 11 12 14 15 6 9 6 9 8 15 7 13 6 12 11 13 23 20 21 20 20 21 20 18
29 34 31 33 44 30 37 29 29 20 7 9 15 9 21 18 22 34 36 34 25 21 17 9 5 7 16 14 18 16 10 17 12 5 8 4 15 21 18 18 18 19 21 21
24 35 31 29 46 30 35 31 33 30 18 6 15 24 25 21 15 22 25 24 23 17 10 6 8 15 12 11 11 6 13 7 8 6 18 7 14 15 16 18 21 21 18 18
21 30 29 28 43 30 24 13 35 42 34 7 6 2 6 7 20 22 24 21 16 9 9 9 10 17 5 6 4 7 11 10 10 5 14 18 12 13 16 18 19 19 21 21
29 21 29 39 40 37 24 10 4 17 35 7 8 7 9 11 11 10 10 13 9 13 10 15 24 23 15 5 4 11 10 12 13 6 2 7 11 8 12 16 17 21 19 20
25 25 26 40 35 33 40 45 23 29 32 10 5 8 7 20 13 12 18 12 14 15 12 12 8 10 8 2 13 10 5 7 10 12 12 11 6 7 11 12 12 12 17 17
21 23 26 30 39 31 41 35 33 32 16 7 6 7 1 17 12 6 15 16 10 17 9 16 10 8 5 10 14 11 9 5 4 4 8 9 9 11 14 15 15 10 12 12
27 32 19 14 22 26 27 28 34 23 14 10 9 21 8 14 10 9 12 12 7 5 12 11 8 4 15 13 15 10 8 9 10 8 2 6 8 10 11 12 11 10 9 9
36 20 14 13 41 42 15 13 12 15 9 15 20 31 16 14 7 5 11 2 6 6 8 9 7 7 10 12 12 11 11 12 13 10 8 8 7 7 5 7 10 10 11 11
25 15 17 35 15 13 11 13 11 11 11 21 13 17 24 8 6 5 8 5 6 9 17 6 4 8 18 14 12 11 11 11 13 12 10 10 11 10 7 7 9 10 11 11
23 13 14 14 12 12 12 19 9 11 13 19 22 9 18 8 11 6 3 9 10 6 6 2 7 21 14 12 9 11 12 12 12 13 14 15 13 13 13 14 13 12 12 14
10 10 10 10 10 11 7 10 15 11 17 32 33 21 8 8 10 5 7 2 5 5 8 7 10 21 14 10 8 6 11 13 14 14 14 15 15 17 17 17 14 13 13 13
9 11 7 10 6 6 5 10 16 12 27 37 19 9 7 4 5 5 4 6 5 6 7 6 20 17 13 11 10 11 12 14 15 14 16 17 17 18 18 17 15 15 15 14
5 7 4 4 11 9 10 14 16 30 28 22 10 6 6 6 3 7 3 8 5 6 8 18 18 15 14 14 15 15 16 16 16 17 16 16 17 18 17 17 17 16 14 13
7 5 5 3 10 14 12 11 10 29 20 4 6 10 4 5 4 5 5 4 8 22 22 18 18 15 16 17 18 18 18 18 17 17 16 16 16 20 14 14 15 15 16 19
Wind_Direction_500mb
195 190 185 161 125 49 26 305 294 332 352 237 190 308 340 311 321 328 351 330 339 343 331 337 6 16 29 357 343 343 326 301 193 201 179 233 209 210 213 218 217 243 283 158
197 195 188 176 130 58 7 325 22 346 8 271 289 26 319 246 321 358 356 329 345 332 337 344 347 18 348 353 13 359 337 310 180 202 152 170 194 206 222 226 281 237 223 237
202 195 202 196 155 86 79 35 21 36 44 157 319 358 353 315 18 307 328 309 326 351 342 332 337 3 357 351 2 343 313 315 326 340 338 200 210 201 203 215 226 241 238 145
205 196 200 197 217 137 97 57 271 6 158 289 328 304 286 313 348 336 327 308 352 347 333 323 348 340 343 340 24 351 360 284 322 343 261 289 239 217 220 227 236 244 262 301
212 201 200 198 199 163 234 150 234 196 44 325 307 134 279 313 320 332 324 332 340 330 325 328 326 333 326 320 329 355 338 299 327 278 240 270 261 260 262 259 258 267 277 275
228 200 197 192 178 145 207 202 252 296 238 202 274 7 306 314 324 314 328 334 323 320 326 322 308 301 289 277 287 316 304 323 325 289 349 315 262 248 249 249 258 270 268 33
250 197 193 196 187 180 198 201 214 231 280 263 304 304 297 297 301 300 301 304 300 310 317 311 295 276 268 260 252 224 279 310 290 300 248 227 67 354 282 251 44 346 6 33
235 198 194 200 197 202 203 207 216 234 267 300 276 278 297 299 279 269 293 303 309 311 310 306 306 284 250 248 241 229 201 257 297 274 272 272 150 31 3 350 84 24 28 32
212 209 200 201 200 206 228 191 210 233 289 270 336 304 304 295 309 305 286 312 312 305 304 291 289 317 329 157 192 132 222 246 270 283 262 271 26 21 343 325 118 50 51 39
212 215 207 205 205 205 218 236 236 229 245 278 275 273 313 313 306 286 326 335 318 297 305 289 297 308 332 322 45 199 271 241 239 248 251 113 360 358 346 268 38 34 55 46
218 218 213 208 209 213 220 245 250 236 227 274 278 278 276 278 272 318 332 317 342 299 300 304 345 319 349 317 32 5 15 307 292 261 234 214 356 64 20 180 31 40 48 49
217 224 222 211 215 213 222 244 260 261 227 255 266 271 265 268 270 291 292 302 322 292 304 354 331 322 331 324 315 21 52 32 328 12 26 28 29 58 30 47 56 42 51 50
212 219 222 217 215 217 218 236 259 215 240 275 272 264 285 250 236 225 258 249 244 294 316 313 313 294 295 320 349 351 72 26 345 322 39 39 29 37 44 45 51 49 51 54
216 222 222 226 215 221 216 232 249 257 220 270 289 244 263 253 227 232 231 246 282 304 305 291 303 291 310 321 310 333 355 328 341 90 118 328 67 33 26 38 42 47 49 51
211 221 224 227 209 218 219 234 246 249 234 292 296 297 273 245 228 218 216 232 249 262 284 263 273 289 319 311 283 69 7 9 360 4 336 290 54 40 34 41 40 37 42 46
201 225 226 219 205 217 221 248 254 239 234 261 267 316 270 230 205 213 224 232 227 207 249 252 252 266 312 300 336 76 78 54 22 24 52 81 90 53 43 40 33 42 41 39
209 224 232 210 204 206 205 208 323 218 203 208 273 250 167 205 168 178 197 192 190 221 246 241 258 258 188 253 297 115 80 63 46 71 67 96 28 38 21 23 22 25 36 38
223 222 229 206 215 226 237 233 250 184 184 194 248 267 205 176 175 196 193 189 212 216 235 245 242 261 235 249 113 108 98 79 55 46 59 79 82 26 16 25 2 13 27 32
208 202 193 207 219 228 233 235 246 207 196 210 191 247 215 173 204 176 175 184 209 233 222 237 220 229 216 74 114 92 56 55 6 89 82 68 47 29 22 20 12 4 12 20
185 186 197 215 206 209 206 173 172 198 212 230 229 236 236 192 166 210 180 192 230 232 222 215 221 95 106 95 91 90 59 34 15 207 226 8 34 26 26 22 15 17 19 26
187 189 218 229 162 157 171 160 180 178 208 215 232 224 219 204 193 197 221 218 196 241 197 204 216 125 117 116 95 77 60 55 50 62 57 32 22 13 14 25 33 33 40 45
184 201 196 170 151 177 188 175 180 203 213 172 204 212 218 171 184 248 209 244 249 250 145 207 190 93 116 114 96 72 58 65 62 62 66 69 65 58 73 73 63 59 61 68
208 236 205 182 171 191 203 172 180 182 191 166 168 158 174 175 195 214 250 233 247 155 203 67 53 116 114 111 104 75 62 68 74 74 77 76 79 88 83 80 76 75 77 78
237 240 182 222 176 221 196 203 169 149 161 163 170 152 157 148 173 218 245 261 248 234 211 93 117 119 115 106 95 97 75 74 78 78 79 82 82 80 77 72 75 75 76 76
260 281 218 190 69 65 77 90 115 130 161 151 151 133 150 126 180 218 282 228 218 12 53 86 119 120 121 109 96 92 86 85 87 90 87 84 81 77 76 76 74 73 72 69
252 264 258 126 158 146 147 130 122 150 149 160 148 140 169 172 241 203 232 293 38 86 87 116 128 118 110 110 109 106 103 99 94 90 88 86 83 79 75 71 66 66 66 62
214 203 305 346 75 127 118 120 123 157 158 170 168 176 131 132 202 189 345 22 81 119 116 108 111 126 124 120 112 108 107 104 101 98 95 88 81 68 65 60 55 50 48 47
Wind_Speed_850mb
12 13 9 4 3 7 14 1 3 13 6 3 2 7 11 15 12 12 10 14 27 28 36 17 17 26 18 28 23 16 14 15 27 37 25 30 46 32 36 18 27 18 18 4
15 18 11 5 4 6 3 3 4 8 6 3 4 5 9 5 13 10 12 11 20 28 20 13 18 24 18 40 26 22 19 6 4 11 11 17 30 34 29 25 22 14 17 14
19 22 13 7 6 6 9 3 2 2 2 3 10 10 7 14 4 10 17 12 16 24 23 28 12 27 25 23 21 19 20 10 9 8 11 11 22 33 36 28 17 21 22 23
21 24 17 13 6 6 6 4 3 4 2 3 11 10 9 15 14 12 12 10 24 28 23 24 21 33 26 31 11 20 14 13 16 5 17 8 8 21 20 23 24 18 9 27
23 26 22 16 9 8 4 7 4 7 2 3 7 3 5 14 17 20 19 20 30 32 26 32 38 38 33 18 19 22 23 10 15 18 15 12 13 13 15 22 20 22 25 17
20 31 29 20 14 13 6 6 3 9 1 4 6 3 12 17 21 14 14 27 31 32 31 48 57 58 53 40 33 18 12 13 15 5 7 7 15 22 23 22 21 16 23 12
20 34 32 23 19 20 8 6 3 3 7 6 6 11 17 19 21 24 35 32 27 32 51 60 54 49 36 30 25 12 15 17 9 10 5 9 8 15 15 19 16 13 4 13
24 34 38 31 22 24 15 10 7 5 8 13 12 11 14 20 21 20 24 25 22 36 43 20 24 7 7 9 22 20 21 10 8 7 11 14 15 15 16 20 8 18 13 14
27 26 38 35 26 24 33 24 11 6 10 6 10 13 20 16 17 14 10 16 25 25 16 12 14 10 8 3 6 1 9 14 10 11 9 4 14 20 29 33 7 14 13 15
30 26 37 35 32 26 22 26 24 19 8 26 22 17 12 16 14 12 16 20 21 14 5 14 13 9 13 7 6 1 3 6 17 17 12 9 28 21 17 10 8 17 18 21
31 31 33 37 33 33 28 26 28 30 15 33 32 27 25 27 20 11 21 19 3 9 7 7 9 10 10 9 8 4 8 7 4 7 9 4 45 10 10 2 15 18 24 22
33 35 29 42 32 38 31 26 22 26 29 25 24 26 35 31 34 21 10 18 21 10 7 7 7 9 9 19 8 10 5 10 5 11 7 15 23 22 22 20 16 20 20 17
32 34 32 41 38 32 41 29 25 23 28 44 40 34 19 30 33 27 20 10 11 12 14 15 6 9 6 9 8 15 7 13 6 12 11 13 23 20 21 20 20 21 20 18
29 34 31 33 44 30 37 29 29 20 7 9 15 9 21 18 22 34 36 34 25 21 17 9 5 7 16 14 18 16 10 17 12 5 8 4 15 21 18 18 18 19 21 21
24 35 31 29 46 30 35 31 33 30 18 6 15 24 25 21 15 22 25 24 23 17 10 6 8 15 12 11 11 6 13 7 8 6 18 7 14 15 16 18 21 21 18 18
21 30 29 28 43 30 24 13 35 42 34 7 6 2 6 7 20 22 24 21 16 9 9 9 10 17 5 6 4 7 11 10 10 5 14 18 12 13 16 18 19 19 21 21
29 21 29 39 40 37 24 10 4 17 35 7 8 7 9 11 11 10 10 13 9 13 10 15 24 23 15 5 4 11 10 12 13 6 2 7 11 8 12 16 17 21 19 20
25 25 26 40 35 33 40 45 23 29 32 10 5 8 7 20 13 12 18 12 14 15 12 12 8 10 8 2 13 10 5 7 10 12 12 11 6 7 11 12 12 12 17 17
21 23 26 30 39 31 41 35 33 32 16 7 6 7 1 17 12 6 15 16 10 17 9 16 10 8 5 10 14 11 9 5 4 4 8 9 9 11 14 15 15 10 12 12
27 32 19 14 22 26 27 28 34 23 14 10 9 21 8 14 10 9 12 12 7 5 12 11 8 4 15 13 15 10 8 9 10 8 2 6 8 10 11 12 11 10 9 9
36 20 14 13 41 42 15 13 12 15 9 15 20 31 16 14 7 5 11 2 6 6 8 9 7 7 10 12 12 11 11 12 13 10 8 8 7 7 5 7 10 10 11 11
25 15 17 35 15 13 11 13 11 11 11 21 13 17 24 8 6 5 8 5 6 9 17 6 4 8 18 14 12 11 11 11 13 12 10 10 11 10 7 7 9 10 11 11
23 13 14 14 12 12 12 19 9 11 13 19 22 9 18 8 11 6 3 9 10 6 6 2 7 21 14 12 9 11 12 12 12 13 14 15 13 13 13 14 13 12 12 14
10 10 10 10 10 11 7 10 15 11 17 32 33 21 8 8 10 5 7 2 5 5 8 7 10 21 14 10 8 6 11 13 14 14 14 15 15 17 17 17 14 13 13 13
9 11 7 10 6 6 5 10 16 12 27 37 19 9 7 4 5 5 4 6 5 6 7 6 20 17 13 11 10 11 12 14 15 14 16 17 17 18 18 17 15 15 15 14
5 7 4 4 11 9 10 14 16 30 28 22 10 6 6 6 3 7 3 8 5 6 8 18 18 15 14 14 15 15 16 16 16 17 16 16 17 18 17 17 17 16 14 13
7 5 5 3 10 14 12 11 10 29 20 4 6 10 4 5 4 5 5 4 8 22 22 18 18 15 16 17 18 18 18 18 17 17 16 16 16 20 14 14 15 15 16 19
Wind_Direction_850mb
195 190 185 161 125 49 26 305 294 332 352 237 190 308 340 311 321 328 351 330 339 343 331 337 6 16 29 357 343 343 326 301 193 201 179 233 209 210 213 218 217 243 283 158
197 195 188 176 130 58 7 325 22 346 8 271 289 26 319 246 321 358 356 329 345 332 337 344 347 18 348 353 13 359 337 310 180 202 152 170 194 206 222 226 281 237 223 237
202 195 202 196 155 86 79 35 21 36 44 157 319 358 353 315 18 307 328 309 326 351 342 332 337 3 357 351 2 343 313 315 326 340 338 200 210 201 203 215 226 241 238 145
205 196 200 197 217 137 97 57 271 6 158 289 328 304 286 313 348 336 327 308 352 347 333 323 348 340 343 340 24 351 360 284 322 343 261 289 239 217 220 227 236 244 262 301
212 201 200 198 199 163 234 150 234 196 44 325 307 134 279 313 320 332 324 332 340 330 325 328 326 333 326 320 329 355 338 299 327 278 240 270 261 260 262 259 258 267 277 275
228 200 197 192 178 145 207 202 252 296 238 202 274 7 306 314 324 314 328 334 323 320 326 322 308 301 289 277 287 316 304 323 325 289 349 315 262 248 249 249 258 270 268 33
250 197 193 196 187 180 198 201 214 231 280 263 304 304 297 297 301 300 301 304 300 310 317 311 295 276 268 260 252 224 279 310 290 300 248 227 67 354 282 251 44 346 6 33
235 198 194 200 197 202 203 207 216 234 267 300 276 278 297 299 279 269 293 303 309 311 310 306 306 284 250 248 241 229 201 257 297 274 272 272 150 31 3 350 84 24 28 32
212 209 200 201 200 206 228 191 210 233 289 270 336 304 304 295 309 305 286 312 312 305 304 291 289 317 329 157 192 132 222 246 270 283 262 271 26 21 343 325 118 50 51 39
212 215 207 205 205 205 218 236 236 229 245 278 275 273 313 313 306 286 326 335 318 297 305 289 297 308 332 322 45 199 271 241 239 248 251 113 360 358 346 268 38 34 55 46
218 218 213 208 209 213 220 245 250 236 227 274 278 278 276 278 272 318 332 317 342 299 300 304 345 319 349 317 32 5 15 307 292 261 234 214 356 64 20 180 31 40 48 49
217 224 222 211 215 213 222 244 260 261 227 255 266 271 265 268 270 291 292 302 322 292 304 354 331 322 331 324 315 21 52 32 328 12 26 28 29 58 30 47 56 42 51 50
212 219 222 217 215 217 218 236 259 215 240 275 272 264 285 250 236 225 258 249 244 294 316 313 313 294 295 320 349 351 72 26 345 322 39 39 29 37 44 45 51 49 51 54
216 222 222 226 215 221 216 232 249 257 220 270 289 244 263 253 227 232 231 246 282 304 305 291 303 291 310 321 310 333 355 328 341 90 118 328 67 33 26 38 42 47 49 51
211 221 224 227 209 218 219 234 246 249 234 292 296 297 273 245 228 218 216 232 249 262 284 263 273 289 319 311 283 69 7 9 360 4 336 290 54 40 34 41 40 37 42 46
201 225 226 219 205 217 221 248 254 239 234 261 267 316 270 230 205 213 224 232 227 207 249 252 252 266 312 300 336 76 78 54 22 24 52 81 90 53 43 40 33 42 41 39
209 224 232 210 204 206 205 208 323 218 203 208 273 250 167 205 168 178 197 192 190 221 246 241 258 258 188 253 297 115 80 63 46 71 67 96 28 38 21 23 22 25 36 38
223 222 229 206 215 226 237 233 250 184 184 194 248 267 205 176 175 196 193 189 212 216 235 245 242 261 235 249 113 108 98 79 55 46 59 79 82 26 16 25 2 13 27 32
208 202 193 207 219 228 233 235 246 207 196 210 191 247 215 173 204 176 175 184 209 233 222 237 220 229 216 74 114 92 56 55 6 89 82 68 47 29 22 20 12 4 12 20
185 186 197 215 206 209 206 173 172 198 212 230 229 236 236 192 166 210 180 192 230 232 222 215 221 95 106 95 91 90 59 34 15 207 226 8 34 26 26 22 15 17 19 26
187 189 218 229 162 157 171 160 180 178 208 215 232 224 219 204 193 197 221 218 196 241 197 204 216 125 117 116 95 77 60 55 50 62 57 32 22 13 14 25 33 33 40 45
184 201 196 170 151 177 188 175 180 203 213 172 204 212 218 171 184 248 209 244 249 250 145 207 190 93 116 114 96 72 58 65 62 62 66 69 65 58 73 73 63 59 61 68
208 236 205 182 171 191 203 172 180 182 191 166 168 158 174 175 195 214 250 233 247 155 203 67 53 116 114 111 104 75 62 68 74 74 77 76 79 88 83 80 76 75 77 78
237 240 182 222 176 221 196 203 169 149 161 163 170 152 157 148 173 218 245 261 248 234 211 93 117 119 115 106 95 97 75 74 78 78 79 82 82 80 77 72 75 75 76 76
260 281 218 190 69 65 77 90 115 130 161 151 151 133 150 126 180 218 282 228 218 12 53 86 119 120 121 109 96 92 86 85 87 90 87 84 81 77 76 76 74 73 72 69
252 264 258 126 158 146 147 130 122 150 149 160 148 140 169 172 241 203 232 293 38 86 87 116 128 118 110 110 109 106 103 99 94 90 88 86 83 79 75 71 66 66 66 62
214 203 305 346 75 127 118 120 123 157 158 170 168 176 131 132 202 189 345 22 81 119 116 108 111 126 124 120 112 108 107 104 101 98 95 88 81 68 65 60 55 50 48 47